LiveATC.Net - Listen to live air traffic control over the Internet!


ICAO: UUEE  IATA: SVO   Airport: Sheremetyevo Airport
City: Moscow
Country: Russia   Continent: Europe
UUEE METAR Weather: UUEE 181130Z 08009MPS CAVOK 14/M06 Q1020 RMK WS R06L R06C/CLRD62 R06L/CLRD62 NOSIG
UUEE Flight Activity (FlightAware)

UUEE Twr/App/Radar
Feed Status: UP   Listeners: 2
Listen in your browser - HTML5 player (in browser, HTML5)
Click here to listen with your own player (launches your MP3 player)
Archive Access: UUEE Twr/App/Radar
FacilityFrequency
Sheremetyevo Radar118.100
Sheremetyevo Radar/Departure126.600
Sheremetyevo Tower131.500
Sheremetyevo Tower (Rwy 24R/06L)118.700

NOTICE

Unauthorized use prohibited. See LiveATC.net Terms of Service


Airport/ARTCC Code
Frequency Search
(e.g., 124.400, 128.75)
Site-wide search
 


Browse Feeds
Top 50 Feeds
HF Oceanic Feeds
Coverage Map
Bad Weather Areas

LiveATC FAQ
Offer LiveATC feed
Contact LiveATC.net
Press Inquiries

LiveATC on iPhone
LiveATC on Android

Windows Phone
Windows 8/10

LiveATC Mobile
(Mobile browser)

ATC Audio Archives
Interesting Recordings

LiveATC Forums


Home Page
About LiveATC.net
Make a Donation
Terms of Use
Privacy Policy

Canadian Air Freqs

AIRMETs/SIGMETs

FAA Airport Status
Nat'l Airspace Status
Arrival Demand Charts


Server Software By:
Icecast.org
Liquidsoap